Hourly Weather Bolshoe Churaevo

Today, 28 July, Wednesday

Time Temperature Precipitation Wind Pressure Humidity
00:00 +16°C° 0 mm 1 mps 739 mmHg 50%
01:00 +15°C° 0 mm 0 mps 739 mmHg 50%
02:00 +16°C° 0 mm 1 mps 739 mmHg 51%
03:00 +15°C° 0 mm 1 mps 739 mmHg 52%
04:00 +15°C° 0 mm 1 mps 739 mmHg 53%
05:00 +18°C° 0 mm 1 mps 739 mmHg 52%
06:00 +19°C° 0 mm 2 mps 739 mmHg 51%
07:00 +20°C° 0 mm 2 mps 739 mmHg 50%
08:00 +22°C° 0 mm 3 mps 739 mmHg 48%
09:00 +23°C° 0 mm 4 mps 739 mmHg 47%
10:00 +25°C° 0 mm 5 mps 738 mmHg 44%
11:00 +26°C° 0 mm 5 mps 738 mmHg 42%
12:00 +26°C° 0 mm 5 mps 738 mmHg 40%
13:00 +27°C° 0 mm 6 mps 738 mmHg 38%
14:00 +27°C° 0 mm 5 mps 737 mmHg 34%
15:00 +28°C° 0 mm 5 mps 737 mmHg 31%
16:00 +28°C° 0 mm 5 mps 737 mmHg 28%
17:00 +27°C° 0 mm 5 mps 737 mmHg 31%
18:00 +26°C° 0 mm 5 mps 737 mmHg 33%
19:00 +23°C° 0 mm 5 mps 737 mmHg 35%
20:00 +21°C° 0 mm 4 mps 738 mmHg 40%
21:00 +19°C° 0 mm 4 mps 738 mmHg 45%
22:00 +16°C° 0 mm 3 mps 739 mmHg 50%
23:00 +14°C° 0 mm 3 mps 739 mmHg 53%

Tomorrow, 29 July, Thursday

Time Temperature Precipitation Wind Pressure Humidity
00:00 +14°C° 0 mm 3 mps 739 mmHg 55%
01:00 +13°C° 0 mm 3 mps 739 mmHg 57%
02:00 +12°C° 0 mm 3 mps 739 mmHg 61%
03:00 +11°C° 0 mm 3 mps 739 mmHg 65%
04:00 +11°C° 0 mm 3 mps 740 mmHg 69%
05:00 +13°C° 0 mm 2 mps 740 mmHg 67%
06:00 +15°C° 0 mm 2 mps 740 mmHg 64%
07:00 +16°C° 0 mm 2 mps 740 mmHg 62%
08:00 +18°C° 0 mm 2 mps 740 mmHg 54%
09:00 +20°C° 0 mm 2 mps 740 mmHg 46%
10:00 +23°C° 0 mm 2 mps 740 mmHg 38%
11:00 +24°C° 0 mm 2 mps 740 mmHg 35%
12:00 +25°C° 0 mm 2 mps 740 mmHg 31%
13:00 +26°C° 0 mm 2 mps 740 mmHg 28%
14:00 +27°C° 0 mm 2 mps 740 mmHg 26%
15:00 +27°C° 0 mm 2 mps 739 mmHg 24%
16:00 +28°C° 0 mm 2 mps 739 mmHg 23%
17:00 +26°C° 0 mm 2 mps 739 mmHg 26%
18:00 +25°C° 0 mm 1 mps 739 mmHg 29%
19:00 +24°C° 0 mm 1 mps 739 mmHg 32%
20:00 +23°C° 0 mm 1 mps 739 mmHg 32%
21:00 +20°C° 0 mm 2 mps 739 mmHg 33%
22:00 +19°C° 0 mm 2 mps 739 mmHg 33%
23:00 +19°C° 0 mm 2 mps 739 mmHg 33%

Day after tomorrow, 30 July, Friday

Time Temperature Precipitation Wind Pressure Humidity
00:00 +19°C° 0 mm 2 mps 739 mmHg 33%
01:00 +20°C° 0 mm 2 mps 739 mmHg 33%
02:00 +20°C° 0 mm 3 mps 739 mmHg 34%
03:00 +20°C° 0 mm 3 mps 739 mmHg 34%
04:00 +20°C° 0 mm 3 mps 739 mmHg 35%
05:00 +20°C° 0 mm 3 mps 739 mmHg 37%
06:00 +20°C° 0 mm 3 mps 739 mmHg 39%
07:00 +20°C° 0 mm 4 mps 739 mmHg 42%
08:00 +22°C° 0 mm 5 mps 739 mmHg 36%
09:00 +24°C° 0 mm 6 mps 739 mmHg 31%
10:00 +27°C° 0 mm 7 mps 739 mmHg 26%
11:00 +28°C° 0 mm 8 mps 739 mmHg 27%
12:00 +29°C° 0 mm 8 mps 738 mmHg 28%
13:00 +31°C° 0 mm 9 mps 738 mmHg 29%
14:00 +31°C° 0 mm 9 mps 738 mmHg 28%
15:00 +32°C° 0 mm 8 mps 737 mmHg 26%
16:00 +33°C° 0 mm 8 mps 737 mmHg 24%
17:00 +32°C° 0 mm 7 mps 737 mmHg 26%
18:00 +30°C° 0 mm 5 mps 736 mmHg 29%
19:00 +29°C° 0 mm 4 mps 736 mmHg 31%
20:00 +28°C° 0 mm 3 mps 736 mmHg 36%
21:00 +26°C° 0 mm 2 mps 737 mmHg 41%
22:00 +25°C° 0 mm 1 mps 737 mmHg 45%
23:00 +24°C° 0 mm 1 mps 737 mmHg 48%

31 July, Saturday

Time Temperature Precipitation Wind Pressure Humidity
00:00 +24°C° 0 mm 1 mps 737 mmHg 50%
01:00 +23°C° 0 mm 1 mps 737 mmHg 53%
02:00 +23°C° 0 mm 1 mps 737 mmHg 55%
03:00 +22°C° 0 mm 1 mps 737 mmHg 57%
04:00 +22°C° 0 mm 1 mps 737 mmHg 59%
05:00 +23°C° 0 mm 1 mps 737 mmHg 55%
06:00 +25°C° 0 mm 1 mps 738 mmHg 52%
07:00 +27°C° 0 mm 1 mps 738 mmHg 48%
08:00 +29°C° 0 mm 2 mps 738 mmHg 44%
09:00 +30°C° 0 mm 3 mps 738 mmHg 40%
10:00 +33°C° 0 mm 4 mps 738 mmHg 35%
11:00 +34°C° 0 mm 5 mps 738 mmHg 33%
12:00 +35°C° 0 mm 5 mps 738 mmHg 31%
13:00 +35°C° 0 mm 5 mps 737 mmHg 29%
14:00 +35°C° 0 mm 5 mps 737 mmHg 30%
15:00 +35°C° 0 mm 5 mps 737 mmHg 30%
16:00 +35°C° 0 mm 5 mps 737 mmHg 30%
17:00 +33°C° 0 mm 4 mps 737 mmHg 35%
18:00 +32°C° 0 mm 4 mps 737 mmHg 39%
19:00 +29°C° 0 mm 3 mps 738 mmHg 43%
20:00 +27°C° 0 mm 2 mps 738 mmHg 51%
21:00 +25°C° 0 mm 2 mps 738 mmHg 60%
22:00 +23°C° 0 mm 1 mps 738 mmHg 68%
23:00 +23°C° 0 mm 1 mps 738 mmHg 67%

1 August, Sunday

Time Temperature Precipitation Wind Pressure Humidity
00:00 +23°C° 0 mm 1 mps 738 mmHg 67%
01:00 +23°C° 0 mm 1 mps 737 mmHg 66%
02:00 +23°C° 0 mm 1 mps 737 mmHg 65%
03:00 +23°C° 0 mm 1 mps 737 mmHg 63%
04:00 +22°C° 0 mm 1 mps 737 mmHg 62%
05:00 +24°C° 0 mm 1 mps 737 mmHg 56%
06:00 +26°C° 0 mm 1 mps 738 mmHg 51%
07:00 +28°C° 0 mm 2 mps 738 mmHg 45%
08:00 +29°C° 0 mm 3 mps 738 mmHg 43%
09:00 +30°C° 0 mm 4 mps 738 mmHg 42%
10:00 +32°C° 0 mm 6 mps 738 mmHg 40%
11:00 +33°C° 0 mm 6 mps 738 mmHg 37%
12:00 +34°C° 0 mm 7 mps 738 mmHg 34%
13:00 +35°C° 0 mm 7 mps 738 mmHg 32%
14:00 +35°C° 0 mm 7 mps 738 mmHg 30%
15:00 +35°C° 0 mm 7 mps 738 mmHg 28%
16:00 +35°C° 0 mm 6 mps 738 mmHg 26%
17:00 +34°C° 0 mm 6 mps 738 mmHg 28%
18:00 +32°C° 0 mm 5 mps 738 mmHg 30%
19:00 +30°C° 0 mm 4 mps 738 mmHg 31%
20:00 +28°C° 0 mm 3 mps 739 mmHg 35%
21:00 +26°C° 0 mm 3 mps 739 mmHg 39%
22:00 +24°C° 0 mm 2 mps 739 mmHg 42%
23:00 +23°C° 0 mm 2 mps 739 mmHg 44%

2 August, Monday

Time Temperature Precipitation Wind Pressure Humidity
00:00 +23°C° 0 mm 1 mps 740 mmHg 46%
01:00 +22°C° 0 mm 1 mps 740 mmHg 47%
02:00 +22°C° 0 mm 1 mps 740 mmHg 49%
03:00 +21°C° 0 mm 1 mps 740 mmHg 51%
04:00 +21°C° 0 mm 1 mps 740 mmHg 53%
05:00 +21°C° 0 mm 0 mps 740 mmHg 49%
06:00 +22°C° 0 mm 0 mps 740 mmHg 45%
07:00 +24°C° 0 mm 0 mps 741 mmHg 41%
08:00 +28°C° 0 mm 1 mps 741 mmHg 37%
09:00 +30°C° 0 mm 1 mps 741 mmHg 32%
10:00 +32°C° 0 mm 2 mps 741 mmHg 28%
11:00 +34°C° 0 mm 2 mps 741 mmHg 26%
12:00 +35°C° 0 mm 2 mps 740 mmHg 24%
13:00 +36°C° 0 mm 3 mps 740 mmHg 22%
14:00 +36°C° 0 mm 3 mps 740 mmHg 21%
15:00 +37°C° 0 mm 3 mps 740 mmHg 20%
16:00 +37°C° 0 mm 3 mps 739 mmHg 19%
17:00 +36°C° 0 mm 2 mps 739 mmHg 22%
18:00 +33°C° 0 mm 1 mps 739 mmHg 25%
19:00 +32°C° 0 mm 1 mps 739 mmHg 28%
20:00 +30°C° 0 mm 1 mps 739 mmHg 31%
21:00 +28°C° 0 mm 1 mps 740 mmHg 34%
22:00 +26°C° 0 mm 1 mps 740 mmHg 37%
23:00 +26°C° 0 mm 1 mps 740 mmHg 39%
Show more

We Need Your Consent

Meteoprog and our Service Providers may store and access personal data such as cookies, device identifiers or other similar technologies on your device and process such data to personalise content and ads, as well as provide social media features and to analyse the traffic.

  • Store and/or access information on your device

    Cookies, device identifiers or other information can be stored or accessed on your device for the purposes indicated above.

  • Personalised ads and content, ad and content measurement, audience insights, and products development

    Ads and content can be personalised based on a profile. More data can be added to better personalise ads and content. Ad and content performance can be measured. Insights about the audience who saw the ads and content can be derived. Such data can be used to develop or improve user’s experience, systems and software.

By clicking ‘I Agree’ you will allow the use of indicated cookies, device identifiers, web beacons or other similar technologies. Your settings can be changed in the browser on your device.

For certain purposes, legitimate interests may be relied on, rather than consent. You can read more about this in our Privacy and Cookie Policy.